Weather History for Big Sandy Reg AP, Prestonsbur, KY

Change the Weather History Date:

Thursday, January 2, 2014

  Actual Average Record
Temperature  
Mean Temperature 27 °F -  
Max Temperature 39 °F - - ()
Min Temperature 14 °F - - ()
Degree Days  
Heating Degree Days 38    
Moisture  
Dew Point 26 °F    
Average Humidity 79    
Maximum Humidity 100    
Minimum Humidity 47    
Precipitation  
Precipitation 0.00 in - - ()
Sea Level Pressure  
Sea Level Pressure 29.87 in    
Wind  
Wind Speed 5 mph (West)    
Max Wind Speed 16 mph    
Max Gust Speed 31 mph    
Visibility 7 miles    
Events Snow    
T = Trace of Precipitation, MM = Missing Value Source: NWS Daily Summary

Daily Weather History Graph

Daily Weather History Graph

Search for Another Location

Airport:

Trip Planner

Search our weather history database for the weather conditions in past years. The results will help you decide how hot, cold, wet, or windy it might be!

Date:

Astronomy

Jan. 02, 2014 Rise Set
Actual Time 7:46 AM EST 5:23 PM EST
Civil Twilight 7:16 AM EST 5:52 PM EST
Nautical Twilight 6:44 AM EST 6:25 PM EST
Astronomical Twilight 6:12 AM EST 6:57 PM EST
Moon 8:28 AM EST (1/2) 7:16 PM EST (1/2)
Length of Visible Light 10h 35m
Length of Day
9h 37m
New Moon, 2% of the Moon is Illuminated
Jan 2
New Moon
Jan 7
First Quarter
Jan 15
Full
Jan 24
Last Quarter
Jan 30
New

Hourly Weather History & Observations

Time (EST) Temp. Windchill Dew Point Humidity Pressure Visibility Wind Dir Wind Speed Gust Speed Precip Events Conditions
12:15 AM 37.2 °F 34.7 °F 19.4 °F 49% 30.03 in 10.0 mi SE 3.5 mph - N/A   Clear
12:35 AM 35.6 °F - 19.4 °F 52% 30.01 in 10.0 mi Calm Calm - N/A   Clear
12:55 AM 35.8 °F - 19.8 °F 52% 30.00 in 10.0 mi Calm Calm - N/A   Clear
1:15 AM 36.1 °F 32.3 °F 19.9 °F 52% 29.99 in 10.0 mi SSE 4.6 mph - N/A   Clear
1:35 AM 37.6 °F 35.1 °F 19.2 °F 48% 29.98 in 10.0 mi SSE 3.5 mph - N/A   Clear
1:55 AM 36.9 °F 33.1 °F 19.6 °F 50% 29.97 in 10.0 mi SE 4.6 mph - N/A   Clear
2:15 AM 37.9 °F 35.5 °F 19.4 °F 47% 29.97 in 10.0 mi SSE 3.5 mph - N/A   Clear
2:35 AM 36.5 °F - 19.6 °F 50% 29.97 in 10.0 mi Calm Calm - N/A   Clear
2:50 AM 35.8 °F 33.0 °F 19.8 °F 52% 29.97 in 10.0 mi SSW 3.5 mph - N/A   Scattered Clouds
3:15 AM 36.3 °F - 21.9 °F 56% 29.97 in 10.0 mi Calm Calm - N/A   Overcast
3:35 AM 36.5 °F - 21.6 °F 55% 29.96 in 10.0 mi Calm Calm - N/A   Overcast
3:55 AM 36.9 °F - 21.7 °F 54% 29.95 in 10.0 mi Calm Calm - N/A   Overcast
4:15 AM 37.0 °F 34.5 °F 21.7 °F 54% 29.95 in 10.0 mi SSW 3.5 mph - N/A   Overcast
4:35 AM 37.4 °F - 22.1 °F 54% 29.93 in 10.0 mi Calm Calm - N/A   Overcast
4:55 AM 36.9 °F - 22.5 °F 56% 29.93 in 10.0 mi Calm Calm - N/A   Overcast
5:15 AM 37.0 °F 34.5 °F 22.8 °F 56% 29.92 in 10.0 mi South 3.5 mph - N/A   Overcast
5:35 AM 36.5 °F - 23.5 °F 59% 29.92 in 10.0 mi Calm Calm - N/A   Overcast
5:55 AM 37.4 °F - 23.5 °F 57% 29.91 in 10.0 mi Calm Calm - N/A   Overcast
6:15 AM 37.4 °F - 25.3 °F 62% 29.90 in 10.0 mi Calm Calm - N/A   Overcast
6:35 AM 36.7 °F - 28.8 °F 73% 29.88 in 10.0 mi Calm Calm - N/A Snow Light Snow
6:55 AM 37.0 °F 34.5 °F 29.3 °F 74% 29.88 in 10.0 mi SSE 3.5 mph - N/A Snow Light Snow
7:15 AM 37.0 °F 34.5 °F 30.7 °F 78% 29.87 in 10.0 mi South 3.5 mph - N/A Snow Light Snow
7:35 AM 36.5 °F 31.8 °F 30.9 °F 80% 29.86 in 7.0 mi SSE 5.8 mph - N/A Snow Light Snow
7:55 AM 36.3 °F 32.5 °F 31.8 °F 84% 29.84 in 10.0 mi SE 4.6 mph - N/A   Overcast
8:15 AM 36.9 °F 34.3 °F 32.2 °F 83% 29.84 in 10.0 mi SSE 3.5 mph - N/A Snow Light Snow
8:35 AM 37.0 °F 32.4 °F 32.5 °F 84% 29.83 in 10.0 mi SSE 5.8 mph - N/A Snow Light Snow
8:55 AM 37.4 °F 32.1 °F 32.7 °F 83% 29.82 in 10.0 mi SSE 6.9 mph - N/A   Overcast
9:15 AM 38.1 °F 35.7 °F 33.3 °F 83% 29.80 in 10.0 mi SSE 3.5 mph - N/A   Overcast
9:35 AM 38.5 °F 35.0 °F 33.3 °F 81% 29.80 in 10.0 mi SSE 4.6 mph - N/A   Overcast
9:55 AM 38.8 °F - 34.2 °F 83% 29.79 in 10.0 mi Calm Calm - N/A   Unknown
10:15 AM 38.5 °F 34.1 °F 34.7 °F 86% 29.79 in 10.0 mi South 5.8 mph - N/A   Unknown
10:35 AM 38.3 °F 33.9 °F 35.6 °F 90% 29.76 in 7.0 mi SSE 5.8 mph - N/A   Unknown
10:55 AM 38.8 °F 35.4 °F 36.0 °F 89% 29.76 in 10.0 mi SSW 4.6 mph - N/A   Overcast
11:15 AM 37.6 °F - 36.1 °F 95% 29.75 in 2.0 mi Calm Calm - N/A Snow Light Snow
11:35 AM 37.4 °F - 36.7 °F 97% 29.75 in 1.5 mi Calm Calm - N/A Snow Light Snow
11:55 AM 37.6 °F - 37.0 °F 98% 29.74 in 1.5 mi Calm Calm - N/A Snow Light Snow
12:15 PM 37.4 °F - 37.4 °F 100% 29.71 in 1.5 mi Calm Calm - N/A Snow Light Snow
12:35 PM 38.1 °F 35.7 °F 37.8 °F 99% 29.71 in 2.5 mi WSW 3.5 mph - N/A   Overcast
12:55 PM 38.8 °F 34.6 °F 38.7 °F 99% 29.69 in 5.0 mi West 5.8 mph - N/A   Unknown
1:15 PM 39.4 °F 33.8 °F 39.2 °F 99% 29.70 in 7.0 mi WNW 8.1 mph - N/A   Unknown
1:35 PM 39.2 °F 33.6 °F 38.7 °F 98% 29.70 in 3.0 mi WNW 8.1 mph - N/A   Unknown
1:55 PM 38.7 °F 32.4 °F 37.8 °F 97% 29.70 in 4.0 mi WNW 9.2 mph - N/A   Unknown
2:15 PM 38.5 °F 34.1 °F 37.0 °F 95% 29.71 in 10.0 mi WNW 5.8 mph 16.1 mph N/A   Unknown
2:35 PM 37.9 °F 32.1 °F 36.1 °F 93% 29.71 in 10.0 mi NW 8.1 mph 20.7 mph N/A Snow Light Snow
2:55 PM 37.4 °F 30.3 °F 34.9 °F 91% 29.72 in 7.0 mi WNW 10.4 mph - N/A Snow Light Snow
3:15 PM 36.7 °F 29.9 °F 34.7 °F 93% 29.73 in 7.0 mi WNW 9.2 mph - N/A Snow Light Snow
3:35 PM 36.1 °F 29.9 °F 34.5 °F 94% 29.74 in 7.0 mi West 8.1 mph 16.1 mph N/A Snow Light Snow
3:55 PM 35.4 °F 29.0 °F 33.6 °F 93% 29.76 in 4.0 mi WNW 8.1 mph - N/A Snow Light Snow
4:15 PM 34.7 °F 28.1 °F 33.1 °F 94% 29.77 in 7.0 mi West 8.1 mph - N/A Snow Light Snow
4:35 PM 33.8 °F 24.8 °F 32.0 °F 93% 29.78 in 3.0 mi West 12.7 mph 20.7 mph N/A Snow Light Snow
4:55 PM 33.3 °F 25.1 °F 31.3 °F 92% 29.79 in 4.0 mi WNW 10.4 mph - N/A Snow Light Snow
5:10 PM 32.9 °F 25.3 °F 31.5 °F 94% 29.79 in 4.0 mi WNW 9.2 mph 16.1 mph N/A Snow Light Snow
5:35 PM 32.2 °F 23.8 °F 30.0 °F 92% 29.80 in 5.0 mi NW 10.4 mph 18.4 mph N/A Snow Light Snow
5:55 PM 31.8 °F 22.8 °F 28.6 °F 88% 29.82 in 7.0 mi WNW 11.5 mph 26.5 mph N/A Snow Light Snow
6:15 PM 30.7 °F 20.9 °F 27.5 °F 88% 29.83 in 10.0 mi WNW 12.7 mph 18.4 mph N/A   Overcast
6:35 PM 29.8 °F 20.9 °F 26.1 °F 86% 29.85 in 7.0 mi WNW 10.4 mph 19.6 mph N/A Snow Light Snow
6:55 PM 27.7 °F 16.1 °F 24.1 °F 86% 29.87 in 5.0 mi NW 15.0 mph 31.1 mph N/A Snow Light Snow
7:15 PM 25.7 °F 13.1 °F 21.0 °F 82% 29.89 in 5.0 mi WNW 16.1 mph 28.8 mph N/A Snow Light Snow
7:35 PM 24.3 °F 12.7 °F 18.9 °F 80% 29.91 in 7.0 mi WNW 12.7 mph 25.3 mph N/A Snow Light Snow
7:55 PM 23.2 °F 10.8 °F 17.4 °F 79% 29.93 in 7.0 mi WNW 13.8 mph 25.3 mph N/A Snow Light Snow
8:15 PM 22.5 °F 13.2 °F 17.6 °F 82% 29.95 in 4.0 mi WNW 8.1 mph 17.3 mph N/A Snow Light Snow
8:35 PM 21.0 °F 8.6 °F 17.4 °F 86% 29.96 in 1.2 mi WNW 12.7 mph 23.0 mph N/A Snow Light Snow
8:55 PM 20.3 °F 9.0 °F 17.6 °F 89% 29.97 in 1.0 mi WNW 10.4 mph 19.6 mph N/A Snow Snow
9:15 PM 19.8 °F 10.8 °F 16.9 °F 89% 29.99 in 1.2 mi NW 6.9 mph 17.3 mph N/A Snow Light Snow
9:35 PM 19.0 °F 5.6 °F 14.2 °F 81% 30.00 in 1.8 mi NW 13.8 mph 24.2 mph N/A Snow Light Snow
9:55 PM 18.3 °F 5.9 °F 14.5 °F 85% 30.02 in 1.2 mi NW 11.5 mph 18.4 mph N/A Snow Light Snow
10:15 PM 16.9 °F 1.7 °F 12.0 °F 81% 30.03 in 2.5 mi NW 16.1 mph 25.3 mph N/A Snow Light Snow
10:35 PM 16.3 °F 4.1 °F 11.5 °F 81% 30.06 in 2.5 mi NW 10.4 mph 18.4 mph N/A Snow Light Snow
10:55 PM 15.8 °F 2.1 °F 11.3 °F 82% 30.07 in 2.5 mi NW 12.7 mph 20.7 mph N/A Snow Light Snow
11:15 PM 15.6 °F 2.5 °F 11.5 °F 84% 30.09 in 2.0 mi NW 11.5 mph 18.4 mph N/A Snow Light Snow
11:35 PM 15.4 °F 5.6 °F 11.1 °F 83% 30.10 in 2.0 mi NW 6.9 mph 17.3 mph N/A Snow Light Snow
11:55 PM 14.9 °F 3.1 °F 10.9 °F 84% 30.11 in 2.0 mi NW 9.2 mph 19.6 mph N/A Snow Light Snow